Year,Month,Day,Hour,Minute,Value (Times are PST for temperature in C)
2012,04,27,00,00,5.80
2012,04,27,00,01,5.80
2012,04,27,00,02,5.80
2012,04,27,00,03,5.80
2012,04,27,00,04,5.80
2012,04,27,00,05,5.80
2012,04,27,00,06,5.90
2012,04,27,00,07,5.90
2012,04,27,00,08,5.90
2012,04,27,00,09,5.90
2012,04,27,00,10,5.80
2012,04,27,00,11,5.80
2012,04,27,00,12,5.80
2012,04,27,00,13,5.80
2012,04,27,00,14,5.70
2012,04,27,00,15,5.70
2012,04,27,00,16,5.70
2012,04,27,00,17,5.70
2012,04,27,00,18,5.70
2012,04,27,00,19,5.70
2012,04,27,00,20,5.70
2012,04,27,00,21,5.70
2012,04,27,00,22,5.70
2012,04,27,00,23,5.60
2012,04,27,00,24,5.60
2012,04,27,00,25,5.60
2012,04,27,00,26,5.60
2012,04,27,00,27,5.60
2012,04,27,00,28,5.60
2012,04,27,00,29,5.50
2012,04,27,00,30,5.50
2012,04,27,00,31,5.50
2012,04,27,00,32,5.50
2012,04,27,00,33,5.40
2012,04,27,00,34,5.40
2012,04,27,00,35,5.40
2012,04,27,00,36,5.40
2012,04,27,00,37,5.40
2012,04,27,00,38,5.30
2012,04,27,00,39,5.30
2012,04,27,00,40,5.30
2012,04,27,00,41,5.30
2012,04,27,00,42,5.30
2012,04,27,00,43,5.30
2012,04,27,00,44,5.30
2012,04,27,00,45,5.30
2012,04,27,00,46,5.30
2012,04,27,00,47,5.30
2012,04,27,00,48,5.30
2012,04,27,00,49,5.30
2012,04,27,00,50,5.30
2012,04,27,00,51,5.30
2012,04,27,00,52,5.30
2012,04,27,00,53,5.30
2012,04,27,00,54,5.30
2012,04,27,00,55,5.30
2012,04,27,00,56,5.30
2012,04,27,00,57,5.20
2012,04,27,00,58,5.20
2012,04,27,00,59,5.10
2012,04,27,01,00,5.10
2012,04,27,01,01,5.10
2012,04,27,01,02,5.10
2012,04,27,01,03,5.10
2012,04,27,01,04,5.10
2012,04,27,01,05,5.10
2012,04,27,01,06,5.00
2012,04,27,01,07,4.90
2012,04,27,01,08,4.90
2012,04,27,01,09,4.90
2012,04,27,01,10,5.00
2012,04,27,01,11,5.10
2012,04,27,01,12,5.10
2012,04,27,01,13,5.10
2012,04,27,01,14,5.10
2012,04,27,01,15,5.10
2012,04,27,01,16,5.10
2012,04,27,01,17,5.10
2012,04,27,01,18,5.20
2012,04,27,01,19,5.20
2012,04,27,01,20,5.30
2012,04,27,01,21,5.30
2012,04,27,01,22,5.30
2012,04,27,01,23,5.30
2012,04,27,01,24,5.30
2012,04,27,01,25,5.30
2012,04,27,01,26,5.30
2012,04,27,01,27,5.30
2012,04,27,01,28,5.30
2012,04,27,01,29,5.30
2012,04,27,01,30,5.30
2012,04,27,01,31,5.30
2012,04,27,01,32,5.30
2012,04,27,01,33,5.30
2012,04,27,01,34,5.30
2012,04,27,01,35,5.30
2012,04,27,01,36,5.30
2012,04,27,01,37,5.30
2012,04,27,01,38,5.30
2012,04,27,01,39,5.30
2012,04,27,01,40,5.30
2012,04,27,01,41,5.30
2012,04,27,01,42,5.30
2012,04,27,01,43,5.30
2012,04,27,01,44,5.30
2012,04,27,01,45,5.30
2012,04,27,01,46,5.30
2012,04,27,01,47,5.30
2012,04,27,01,48,5.30
2012,04,27,01,49,5.30
2012,04,27,01,50,5.30
2012,04,27,01,51,5.30
2012,04,27,01,52,5.40
2012,04,27,01,53,5.40
2012,04,27,01,54,5.40
2012,04,27,01,55,5.40
2012,04,27,01,56,5.40
2012,04,27,01,57,5.40
2012,04,27,01,58,5.40
2012,04,27,01,59,5.40
2012,04,27,02,00,5.40
2012,04,27,02,01,5.40
2012,04,27,02,02,5.40
2012,04,27,02,03,5.30
2012,04,27,02,04,5.30
2012,04,27,02,05,5.30
2012,04,27,02,06,5.30
2012,04,27,02,07,5.30
2012,04,27,02,08,5.20
2012,04,27,02,09,5.20
2012,04,27,02,10,5.20
2012,04,27,02,11,5.20
2012,04,27,02,12,5.20
2012,04,27,02,13,5.20
2012,04,27,02,14,5.20
2012,04,27,02,15,5.20
2012,04,27,02,16,5.20
2012,04,27,02,17,5.20
2012,04,27,02,18,5.10
2012,04,27,02,19,5.10
2012,04,27,02,20,5.10
2012,04,27,02,21,5.10
2012,04,27,02,22,5.10
2012,04,27,02,23,5.10
2012,04,27,02,24,5.10
2012,04,27,02,25,5.10
2012,04,27,02,26,5.10
2012,04,27,02,27,5.10
2012,04,27,02,28,5.10
2012,04,27,02,29,5.10
2012,04,27,02,30,5.10
2012,04,27,02,31,5.00
2012,04,27,02,32,4.90
2012,04,27,02,33,4.90
2012,04,27,02,34,4.90
2012,04,27,02,35,4.90
2012,04,27,02,36,4.90
2012,04,27,02,37,4.90
2012,04,27,02,38,4.90
2012,04,27,02,39,4.90
2012,04,27,02,40,4.90
2012,04,27,02,41,4.90
2012,04,27,02,42,4.90
2012,04,27,02,43,4.90
2012,04,27,02,44,4.90
2012,04,27,02,45,4.90
2012,04,27,02,46,4.90
2012,04,27,02,47,4.90
2012,04,27,02,48,4.90
2012,04,27,02,49,4.90
2012,04,27,02,50,4.80
2012,04,27,02,51,4.80
2012,04,27,02,52,4.80
2012,04,27,02,53,4.80
2012,04,27,02,54,4.80
2012,04,27,02,55,4.70
2012,04,27,02,56,4.70
2012,04,27,02,57,4.70
2012,04,27,02,58,4.80
2012,04,27,02,59,4.80
2012,04,27,03,00,4.80
2012,04,27,03,01,4.70
2012,04,27,03,02,4.70
2012,04,27,03,03,4.70
2012,04,27,03,04,4.70
2012,04,27,03,05,4.70
2012,04,27,03,06,4.60
2012,04,27,03,07,4.60
2012,04,27,03,08,4.60
2012,04,27,03,09,4.60
2012,04,27,03,10,4.60
2012,04,27,03,11,4.60
2012,04,27,03,12,4.60
2012,04,27,03,13,4.60
2012,04,27,03,14,4.60
2012,04,27,03,15,4.60
2012,04,27,03,16,4.60
2012,04,27,03,17,4.50
2012,04,27,03,18,4.50
2012,04,27,03,19,4.50
2012,04,27,03,20,4.50
2012,04,27,03,21,4.40
2012,04,27,03,22,4.40
2012,04,27,03,23,4.40
2012,04,27,03,24,4.40
2012,04,27,03,25,4.40
2012,04,27,03,26,4.40
2012,04,27,03,27,4.30
2012,04,27,03,28,4.40
2012,04,27,03,29,4.40
2012,04,27,03,30,4.50
2012,04,27,03,31,4.50
2012,04,27,03,32,4.50
2012,04,27,03,33,4.50
2012,04,27,03,34,4.50
2012,04,27,03,35,4.50
2012,04,27,03,36,4.60
2012,04,27,03,37,4.60
2012,04,27,03,38,4.60
2012,04,27,03,39,4.60
2012,04,27,03,40,4.70
2012,04,27,03,41,4.70
2012,04,27,03,42,4.70
2012,04,27,03,43,4.70
2012,04,27,03,44,4.70
2012,04,27,03,45,4.70
2012,04,27,03,46,4.70
2012,04,27,03,47,4.70
2012,04,27,03,48,4.70
2012,04,27,03,49,4.70
2012,04,27,03,50,4.70
2012,04,27,03,51,4.80
2012,04,27,03,52,4.80
2012,04,27,03,53,4.90
2012,04,27,03,54,4.90
2012,04,27,03,55,4.90
2012,04,27,03,56,4.90
2012,04,27,03,57,5.10
2012,04,27,03,58,5.10
2012,04,27,03,59,5.10
2012,04,27,04,00,5.10
2012,04,27,04,01,5.20
2012,04,27,04,02,5.20
2012,04,27,04,03,5.20
2012,04,27,04,04,5.30
2012,04,27,04,05,5.30
2012,04,27,04,06,5.30
2012,04,27,04,07,5.30
2012,04,27,04,08,5.30
2012,04,27,04,09,5.30
2012,04,27,04,10,5.40
2012,04,27,04,11,5.40
2012,04,27,04,12,5.50
2012,04,27,04,13,5.50
2012,04,27,04,14,5.50
2012,04,27,04,15,5.50
2012,04,27,04,16,5.50
2012,04,27,04,17,5.50
2012,04,27,04,18,5.40
2012,04,27,04,19,5.40
2012,04,27,04,20,5.30
2012,04,27,04,21,5.30
2012,04,27,04,22,5.30
2012,04,27,04,23,5.20
2012,04,27,04,24,5.20
2012,04,27,04,25,5.20
2012,04,27,04,26,5.20
2012,04,27,04,27,5.30
2012,04,27,04,28,5.30
2012,04,27,04,29,5.30
2012,04,27,04,30,5.30
2012,04,27,04,31,5.30
2012,04,27,04,32,5.30
2012,04,27,04,33,5.30
2012,04,27,04,34,5.30
2012,04,27,04,35,5.30
2012,04,27,04,36,5.30
2012,04,27,04,37,5.30
2012,04,27,04,38,5.40
2012,04,27,04,39,5.40
2012,04,27,04,40,5.40
2012,04,27,04,41,5.40
2012,04,27,04,42,5.50
2012,04,27,04,43,5.50
2012,04,27,04,44,5.50
2012,04,27,04,45,5.50
2012,04,27,04,46,5.60
2012,04,27,04,47,5.60
2012,04,27,04,48,5.60
2012,04,27,04,49,5.60
2012,04,27,04,50,5.70
2012,04,27,04,51,5.70
2012,04,27,04,52,5.70
2012,04,27,04,53,5.70
2012,04,27,04,54,5.70
2012,04,27,04,55,5.70
2012,04,27,04,56,5.70
2012,04,27,04,57,5.70
2012,04,27,04,58,5.70
2012,04,27,04,59,5.70
2012,04,27,05,00,5.60
2012,04,27,05,01,5.60
2012,04,27,05,02,5.60
2012,04,27,05,03,5.50
2012,04,27,05,04,5.50
2012,04,27,05,05,5.50
2012,04,27,05,06,5.50
2012,04,27,05,07,5.50
2012,04,27,05,08,5.50
2012,04,27,05,09,5.50
2012,04,27,05,10,5.50
2012,04,27,05,11,5.60
2012,04,27,05,12,5.60
2012,04,27,05,13,5.60
2012,04,27,05,14,5.60
2012,04,27,05,15,5.60
2012,04,27,05,16,5.60
2012,04,27,05,17,5.60
2012,04,27,05,18,5.60
2012,04,27,05,19,5.60
2012,04,27,05,20,5.60
2012,04,27,05,21,5.60
2012,04,27,05,22,5.60
2012,04,27,05,23,5.60
2012,04,27,05,24,5.60
2012,04,27,05,25,5.60
2012,04,27,05,26,5.60
2012,04,27,05,27,5.60
2012,04,27,05,28,5.60
2012,04,27,05,29,5.50
2012,04,27,05,30,5.50
2012,04,27,05,31,5.50
2012,04,27,05,32,5.40
2012,04,27,05,33,5.30
2012,04,27,05,34,5.30
2012,04,27,05,35,5.10
2012,04,27,05,36,5.10
2012,04,27,05,37,5.10
2012,04,27,05,38,5.10
2012,04,27,05,39,5.00
2012,04,27,05,40,4.90
2012,04,27,05,41,4.90
2012,04,27,05,42,4.80
2012,04,27,05,43,4.80
2012,04,27,05,44,4.80
2012,04,27,05,45,4.80
2012,04,27,05,46,4.80
2012,04,27,05,47,4.80
2012,04,27,05,48,4.80
2012,04,27,05,49,4.80
2012,04,27,05,50,4.80
2012,04,27,05,51,4.80
2012,04,27,05,52,4.80
2012,04,27,05,53,4.80
2012,04,27,05,54,4.80
2012,04,27,05,55,4.80
2012,04,27,05,56,4.80
2012,04,27,05,57,4.90
2012,04,27,05,58,4.90
2012,04,27,05,59,4.90
2012,04,27,06,00,4.90
2012,04,27,06,01,4.90
2012,04,27,06,02,4.90
2012,04,27,06,03,4.90
2012,04,27,06,04,4.90
2012,04,27,06,05,4.90
2012,04,27,06,06,4.90
2012,04,27,06,07,4.90
2012,04,27,06,08,4.90
2012,04,27,06,09,4.90
2012,04,27,06,10,4.90
2012,04,27,06,11,4.90
2012,04,27,06,12,4.90
2012,04,27,06,13,4.90
2012,04,27,06,14,4.90
2012,04,27,06,15,5.10
2012,04,27,06,16,5.10
2012,04,27,06,17,5.10
2012,04,27,06,18,5.10
2012,04,27,06,19,5.10
2012,04,27,06,20,5.10
2012,04,27,06,21,5.10
2012,04,27,06,22,5.10
2012,04,27,06,23,5.10
2012,04,27,06,24,5.10
2012,04,27,06,25,5.10
2012,04,27,06,26,5.10
2012,04,27,06,27,5.10
2012,04,27,06,28,5.10
2012,04,27,06,29,5.10
2012,04,27,06,30,5.10
2012,04,27,06,31,5.10
2012,04,27,06,32,5.10
2012,04,27,06,33,5.10
2012,04,27,06,34,5.10
2012,04,27,06,35,5.10
2012,04,27,06,36,5.10
2012,04,27,06,37,5.10
2012,04,27,06,38,5.10
2012,04,27,06,39,5.10
2012,04,27,06,40,5.10
2012,04,27,06,41,5.10
2012,04,27,06,42,5.20
2012,04,27,06,43,5.20
2012,04,27,06,44,5.30
2012,04,27,06,45,5.30
2012,04,27,06,46,5.30
2012,04,27,06,47,5.30
2012,04,27,06,48,5.30
2012,04,27,06,49,5.30
2012,04,27,06,50,5.30
2012,04,27,06,51,5.30
2012,04,27,06,52,5.30
2012,04,27,06,53,5.30
2012,04,27,06,54,5.30
2012,04,27,06,55,5.30
2012,04,27,06,56,5.40
2012,04,27,06,57,5.40
2012,04,27,06,58,5.40
2012,04,27,06,59,5.50
2012,04,27,07,00,5.50
2012,04,27,07,01,5.60
2012,04,27,07,02,5.70
2012,04,27,07,03,5.70
2012,04,27,07,04,5.70
2012,04,27,07,05,5.80
2012,04,27,07,06,5.90
2012,04,27,07,07,5.90
2012,04,27,07,08,6.00
2012,04,27,07,09,6.00
2012,04,27,07,10,6.00
2012,04,27,07,11,6.10
2012,04,27,07,12,6.10
2012,04,27,07,13,6.20
2012,04,27,07,14,6.20
2012,04,27,07,15,6.20
2012,04,27,07,16,6.20
2012,04,27,07,17,6.30
2012,04,27,07,18,6.30
2012,04,27,07,19,6.40
2012,04,27,07,20,6.40
2012,04,27,07,21,6.50
2012,04,27,07,22,6.60
2012,04,27,07,23,6.60
2012,04,27,07,24,6.70
2012,04,27,07,25,6.70
2012,04,27,07,26,6.80
2012,04,27,07,27,6.80
2012,04,27,07,28,6.90
2012,04,27,07,29,6.90
2012,04,27,07,30,6.90
2012,04,27,07,31,7.00
2012,04,27,07,32,7.00
2012,04,27,07,33,7.00
2012,04,27,07,34,7.00
2012,04,27,07,35,7.00
2012,04,27,07,36,7.10
2012,04,27,07,37,7.20
2012,04,27,07,38,7.20
2012,04,27,07,39,7.20
2012,04,27,07,40,7.20
2012,04,27,07,41,7.20
2012,04,27,07,42,7.20
2012,04,27,07,43,7.10
2012,04,27,07,44,7.10
2012,04,27,07,45,7.10
2012,04,27,07,46,7.00
2012,04,27,07,47,7.00
2012,04,27,07,48,7.00
2012,04,27,07,49,7.00
2012,04,27,07,50,7.00
2012,04,27,07,51,7.10
2012,04,27,07,52,7.10
2012,04,27,07,53,7.20
2012,04,27,07,54,7.20
2012,04,27,07,55,7.20
2012,04,27,07,56,7.20
2012,04,27,07,57,7.30
2012,04,27,07,58,7.30
2012,04,27,07,59,7.30
2012,04,27,08,00,7.30
2012,04,27,08,01,7.30
2012,04,27,08,02,7.30
2012,04,27,08,03,7.30
2012,04,27,08,04,7.30
2012,04,27,08,05,7.30
2012,04,27,08,06,7.30
2012,04,27,08,07,7.40
2012,04,27,08,08,7.40
2012,04,27,08,09,7.50
2012,04,27,08,10,7.50
2012,04,27,08,11,7.60
2012,04,27,08,12,7.60
2012,04,27,08,13,7.70
2012,04,27,08,14,7.70
2012,04,27,08,15,7.70
2012,04,27,08,16,7.70
2012,04,27,08,17,7.70
2012,04,27,08,18,7.80
2012,04,27,08,19,7.80
2012,04,27,08,20,7.80
2012,04,27,08,21,7.80
2012,04,27,08,22,7.80
2012,04,27,08,23,7.80
2012,04,27,08,24,7.90
2012,04,27,08,25,7.90
2012,04,27,08,26,7.90
2012,04,27,08,27,8.00
2012,04,27,08,28,8.00
2012,04,27,08,29,8.00
2012,04,27,08,30,8.10
2012,04,27,08,31,8.10
2012,04,27,08,32,8.10
2012,04,27,08,33,8.20
2012,04,27,08,34,8.20
2012,04,27,08,35,8.30
2012,04,27,08,36,8.40
2012,04,27,08,37,8.50
2012,04,27,08,38,8.70
2012,04,27,08,39,8.80
2012,04,27,08,40,8.90
2012,04,27,08,41,9.00
2012,04,27,08,42,9.10
2012,04,27,08,43,9.20
2012,04,27,08,44,9.20
2012,04,27,08,45,9.30
2012,04,27,08,46,9.30
2012,04,27,08,47,9.40
2012,04,27,08,48,9.40
2012,04,27,08,49,9.40
2012,04,27,08,50,9.20
2012,04,27,08,51,9.20
2012,04,27,08,52,9.20
2012,04,27,08,53,9.20
2012,04,27,08,54,9.20
2012,04,27,08,55,9.20
2012,04,27,08,56,9.20
2012,04,27,08,57,9.20
2012,04,27,08,58,9.10
2012,04,27,08,59,9.10
2012,04,27,09,00,9.00
2012,04,27,09,01,9.00
2012,04,27,09,02,8.90
2012,04,27,09,03,8.90
2012,04,27,09,04,8.80
2012,04,27,09,05,8.80
2012,04,27,09,06,8.80
2012,04,27,09,07,8.70
2012,04,27,09,08,8.80
2012,04,27,09,09,8.70
2012,04,27,09,10,8.80
2012,04,27,09,11,8.80
2012,04,27,09,12,8.80
2012,04,27,09,13,8.80
2012,04,27,09,14,8.80
2012,04,27,09,15,8.80
2012,04,27,09,16,8.80
2012,04,27,09,17,8.70
2012,04,27,09,18,8.70
2012,04,27,09,19,8.80
2012,04,27,09,20,8.90
2012,04,27,09,21,8.90
2012,04,27,09,22,8.90
2012,04,27,09,23,9.00
2012,04,27,09,24,9.00
2012,04,27,09,25,9.00
2012,04,27,09,26,9.00
2012,04,27,09,27,8.90
2012,04,27,09,28,8.80
2012,04,27,09,29,8.70
2012,04,27,09,30,8.70
2012,04,27,09,31,8.70
2012,04,27,09,32,8.70
2012,04,27,09,33,8.70
2012,04,27,09,34,8.70
2012,04,27,09,35,8.80
2012,04,27,09,36,8.80
2012,04,27,09,37,8.90
2012,04,27,09,38,8.90
2012,04,27,09,39,9.00
2012,04,27,09,40,9.10
2012,04,27,09,41,9.20
2012,04,27,09,42,9.20
2012,04,27,09,43,9.30
2012,04,27,09,44,9.30
2012,04,27,09,45,9.30
2012,04,27,09,46,9.40
2012,04,27,09,47,9.50
2012,04,27,09,48,9.70
2012,04,27,09,49,9.70
2012,04,27,09,50,9.70
2012,04,27,09,51,9.70
2012,04,27,09,52,9.70
2012,04,27,09,53,9.70
2012,04,27,09,54,9.70
2012,04,27,09,55,9.70
2012,04,27,09,56,9.70
2012,04,27,09,57,9.70
2012,04,27,09,58,9.70
2012,04,27,09,59,9.70
2012,04,27,10,00,9.90
2012,04,27,10,01,10.00
2012,04,27,10,02,10.10
2012,04,27,10,03,10.20
2012,04,27,10,04,10.20
2012,04,27,10,05,10.20
2012,04,27,10,06,10.20
2012,04,27,10,07,10.20
2012,04,27,10,08,10.20
2012,04,27,10,09,10.20
2012,04,27,10,10,10.30
2012,04,27,10,11,10.40
2012,04,27,10,12,10.40
2012,04,27,10,13,10.40
2012,04,27,10,14,10.40
2012,04,27,10,15,10.40
2012,04,27,10,16,10.40
2012,04,27,10,17,10.40
2012,04,27,10,18,10.40
2012,04,27,10,19,10.30
2012,04,27,10,20,10.20
2012,04,27,10,21,10.10
2012,04,27,10,22,10.10
2012,04,27,10,23,10.10
2012,04,27,10,24,10.10
2012,04,27,10,25,10.10
2012,04,27,10,26,10.10
2012,04,27,10,27,10.10
2012,04,27,10,28,10.10
2012,04,27,10,29,10.10
2012,04,27,10,30,10.10
2012,04,27,10,31,10.10
2012,04,27,10,32,10.10
2012,04,27,10,33,10.10
2012,04,27,10,34,10.10
2012,04,27,10,35,10.00
2012,04,27,10,36,9.90
2012,04,27,10,37,9.90
2012,04,27,10,38,9.90
2012,04,27,10,39,9.90
2012,04,27,10,40,10.00
2012,04,27,10,41,10.10
2012,04,27,10,42,10.10
2012,04,27,10,43,10.10
2012,04,27,10,44,10.10
2012,04,27,10,45,10.10
2012,04,27,10,46,10.10
2012,04,27,10,47,10.10
2012,04,27,10,48,10.10
2012,04,27,10,49,10.10
2012,04,27,10,50,10.10
2012,04,27,10,51,10.20
2012,04,27,10,52,10.20
2012,04,27,10,53,10.20
2012,04,27,10,54,10.20
2012,04,27,10,55,10.20
2012,04,27,10,56,10.20
2012,04,27,10,57,10.30
2012,04,27,10,58,10.40
2012,04,27,10,59,10.40
2012,04,27,11,00,10.50
2012,04,27,11,01,10.50
2012,04,27,11,02,10.40
2012,04,27,11,03,10.40
2012,04,27,11,04,10.40
2012,04,27,11,05,10.50
2012,04,27,11,06,10.60
2012,04,27,11,07,10.70
2012,04,27,11,08,10.60
2012,04,27,11,09,10.60
2012,04,27,11,10,10.60
2012,04,27,11,11,10.50
2012,04,27,11,12,10.40
2012,04,27,11,13,10.40
2012,04,27,11,14,10.40
2012,04,27,11,15,10.40
2012,04,27,11,16,10.40
2012,04,27,11,17,10.40
2012,04,27,11,18,10.50
2012,04,27,11,19,10.50
2012,04,27,11,20,10.40
2012,04,27,11,21,10.40
2012,04,27,11,22,10.40
2012,04,27,11,23,10.60
2012,04,27,11,24,10.60
2012,04,27,11,25,10.60
2012,04,27,11,26,10.60
2012,04,27,11,27,10.50
2012,04,27,11,28,10.40
2012,04,27,11,29,10.30
2012,04,27,11,30,10.20
2012,04,27,11,31,10.10
2012,04,27,11,32,10.10
2012,04,27,11,33,10.10
2012,04,27,11,34,10.10
2012,04,27,11,35,10.20
2012,04,27,11,36,10.20
2012,04,27,11,37,10.20
2012,04,27,11,38,10.30
2012,04,27,11,39,10.30
2012,04,27,11,40,10.30
2012,04,27,11,41,10.30
2012,04,27,11,42,10.40
2012,04,27,11,43,10.40
2012,04,27,11,44,10.40
2012,04,27,11,45,10.40
2012,04,27,11,46,10.40
2012,04,27,11,47,10.50
2012,04,27,11,48,10.60
2012,04,27,11,49,10.60
2012,04,27,11,50,10.70
2012,04,27,11,51,10.70
2012,04,27,11,52,10.80
2012,04,27,11,53,10.80
2012,04,27,11,54,10.80
2012,04,27,11,55,10.70
2012,04,27,11,56,10.60
2012,04,27,11,57,10.60
2012,04,27,11,58,10.60
2012,04,27,11,59,10.60
2012,04,27,12,00,10.60
2012,04,27,12,01,10.60
2012,04,27,12,02,10.60
2012,04,27,12,03,10.70
2012,04,27,12,04,10.70
2012,04,27,12,05,10.70
2012,04,27,12,06,10.70
2012,04,27,12,07,10.70
2012,04,27,12,08,10.80
2012,04,27,12,09,10.80
2012,04,27,12,10,10.90
2012,04,27,12,11,10.90
2012,04,27,12,12,10.90
2012,04,27,12,13,10.90
2012,04,27,12,14,10.90
2012,04,27,12,15,10.90
2012,04,27,12,16,10.90
2012,04,27,12,17,10.90
2012,04,27,12,18,10.90
2012,04,27,12,19,10.90
2012,04,27,12,20,10.80
2012,04,27,12,21,10.70
2012,04,27,12,22,10.80
2012,04,27,12,23,10.80
2012,04,27,12,24,10.80
2012,04,27,12,25,10.70
2012,04,27,12,26,10.70
2012,04,27,12,27,10.60
2012,04,27,12,28,10.60
2012,04,27,12,29,10.50
2012,04,27,12,30,10.40
2012,04,27,12,31,10.40
2012,04,27,12,32,10.40
2012,04,27,12,33,10.40
2012,04,27,12,34,10.40
2012,04,27,12,35,10.40
2012,04,27,12,36,10.40
2012,04,27,12,37,10.40
2012,04,27,12,38,10.50
2012,04,27,12,39,10.60
2012,04,27,12,40,10.60
2012,04,27,12,41,10.70
2012,04,27,12,42,10.70
2012,04,27,12,43,10.60
2012,04,27,12,44,10.60
2012,04,27,12,45,10.70
2012,04,27,12,46,10.70
2012,04,27,12,47,10.80
2012,04,27,12,48,10.80
2012,04,27,12,49,10.70
2012,04,27,12,50,10.60
2012,04,27,12,51,10.60
2012,04,27,12,52,10.70
2012,04,27,12,53,10.80
2012,04,27,12,54,10.90
2012,04,27,12,55,10.90
2012,04,27,12,56,11.10
2012,04,27,12,57,11.10
2012,04,27,12,58,11.10
2012,04,27,12,59,11.00
2012,04,27,13,00,10.90
2012,04,27,13,01,10.90
2012,04,27,13,02,10.90
2012,04,27,13,03,11.10
2012,04,27,13,04,11.10
2012,04,27,13,05,11.10
2012,04,27,13,06,11.10
2012,04,27,13,07,11.10
2012,04,27,13,08,11.10
2012,04,27,13,09,11.30
2012,04,27,13,10,11.40
2012,04,27,13,11,11.40
2012,04,27,13,12,11.60
2012,04,27,13,13,11.60
2012,04,27,13,14,11.70
2012,04,27,13,15,11.70
2012,04,27,13,16,11.70
2012,04,27,13,17,11.70
2012,04,27,13,18,11.70
2012,04,27,13,19,11.60
2012,04,27,13,20,11.70
2012,04,27,13,21,11.80
2012,04,27,13,22,11.80
2012,04,27,13,23,11.90
2012,04,27,13,24,12.00
2012,04,27,13,25,12.00
2012,04,27,13,26,11.90
2012,04,27,13,27,11.80
2012,04,27,13,28,11.80
2012,04,27,13,29,11.80
2012,04,27,13,30,11.80
2012,04,27,13,31,12.00
2012,04,27,13,32,12.00
2012,04,27,13,33,12.20
2012,04,27,13,34,12.20
2012,04,27,13,35,12.30
2012,04,27,13,36,12.30
2012,04,27,13,37,12.30
2012,04,27,13,38,12.30
2012,04,27,13,39,12.30
2012,04,27,13,40,12.40
2012,04,27,13,41,12.40
2012,04,27,13,42,12.40
2012,04,27,13,43,12.40
2012,04,27,13,44,12.50
2012,04,27,13,45,12.50
2012,04,27,13,46,12.50
2012,04,27,13,47,12.50
2012,04,27,13,48,12.50
2012,04,27,13,49,12.40
2012,04,27,13,50,12.30
2012,04,27,13,51,12.30
2012,04,27,13,52,12.20
2012,04,27,13,53,12.20
2012,04,27,13,54,12.10
2012,04,27,13,55,12.10
2012,04,27,13,56,12.20
2012,04,27,13,57,12.20
2012,04,27,13,58,12.30
2012,04,27,13,59,12.20
2012,04,27,14,00,12.10
2012,04,27,14,01,12.10
2012,04,27,14,02,12.10
2012,04,27,14,03,12.10
2012,04,27,14,04,12.20
2012,04,27,14,05,12.30
2012,04,27,14,06,12.20
2012,04,27,14,07,12.00
2012,04,27,14,08,11.90
2012,04,27,14,09,11.80
2012,04,27,14,10,11.70
2012,04,27,14,11,11.60
2012,04,27,14,12,11.60
2012,04,27,14,13,11.60
2012,04,27,14,14,11.60
2012,04,27,14,15,11.70
2012,04,27,14,16,11.50
2012,04,27,14,17,11.40
2012,04,27,14,18,11.30
2012,04,27,14,19,11.30
2012,04,27,14,20,11.40
2012,04,27,14,21,11.40
2012,04,27,14,22,11.30
2012,04,27,14,23,11.20
2012,04,27,14,24,11.10
2012,04,27,14,25,11.20
2012,04,27,14,26,11.20
2012,04,27,14,27,11.10
2012,04,27,14,28,11.10
2012,04,27,14,29,11.00
2012,04,27,14,30,10.90
2012,04,27,14,31,10.90
2012,04,27,14,32,10.80
2012,04,27,14,33,10.80
2012,04,27,14,34,10.90
2012,04,27,14,35,10.90
2012,04,27,14,36,10.90
2012,04,27,14,37,10.90
2012,04,27,14,38,10.90
2012,04,27,14,39,10.90
2012,04,27,14,40,10.90
2012,04,27,14,41,10.90
2012,04,27,14,42,10.90
2012,04,27,14,43,10.90
2012,04,27,14,44,10.90
2012,04,27,14,45,10.90
2012,04,27,14,46,11.00
2012,04,27,14,47,11.10
2012,04,27,14,48,11.10
2012,04,27,14,49,11.10
2012,04,27,14,50,11.10
2012,04,27,14,51,11.20
2012,04,27,14,52,11.20
2012,04,27,14,53,11.30
2012,04,27,14,54,11.20
2012,04,27,14,55,11.20
2012,04,27,14,56,11.20
2012,04,27,14,57,11.20
2012,04,27,14,58,11.20
2012,04,27,14,59,11.30
2012,04,27,15,00,11.30
2012,04,27,15,01,11.40
2012,04,27,15,02,11.40
2012,04,27,15,03,11.40
2012,04,27,15,04,11.40
2012,04,27,15,05,11.40
2012,04,27,15,06,11.50
2012,04,27,15,07,11.50
2012,04,27,15,08,11.50
2012,04,27,15,09,11.60
2012,04,27,15,10,11.60
2012,04,27,15,11,11.60
2012,04,27,15,12,11.70
2012,04,27,15,13,11.70
2012,04,27,15,14,11.70
2012,04,27,15,15,11.60
2012,04,27,15,16,11.70
2012,04,27,15,17,11.70
2012,04,27,15,18,11.60
2012,04,27,15,19,11.70
2012,04,27,15,20,11.80
2012,04,27,15,21,11.80
2012,04,27,15,22,11.80
2012,04,27,15,23,11.80
2012,04,27,15,24,11.80
2012,04,27,15,25,11.80
2012,04,27,15,26,11.80
2012,04,27,15,27,11.80
2012,04,27,15,28,11.80
2012,04,27,15,29,11.80
2012,04,27,15,30,11.80
2012,04,27,15,31,11.80
2012,04,27,15,32,11.80
2012,04,27,15,33,11.80
2012,04,27,15,34,11.80
2012,04,27,15,35,11.80
2012,04,27,15,36,11.80
2012,04,27,15,37,11.70
2012,04,27,15,38,11.70
2012,04,27,15,39,11.60
2012,04,27,15,40,11.60
2012,04,27,15,41,11.60
2012,04,27,15,42,11.50
2012,04,27,15,43,11.40
2012,04,27,15,44,11.40
2012,04,27,15,45,11.50
2012,04,27,15,46,11.60
2012,04,27,15,47,11.60
2012,04,27,15,48,11.60
2012,04,27,15,49,11.50
2012,04,27,15,50,11.40
2012,04,27,15,51,11.40
2012,04,27,15,52,11.50
2012,04,27,15,53,11.60
2012,04,27,15,54,11.60
2012,04,27,15,55,11.60
2012,04,27,15,56,11.60
2012,04,27,15,57,11.60
2012,04,27,15,58,11.60
2012,04,27,15,59,11.60
2012,04,27,16,00,11.60
2012,04,27,16,01,11.60
2012,04,27,16,02,11.60
2012,04,27,16,03,11.50
2012,04,27,16,04,11.40
2012,04,27,16,05,11.40
2012,04,27,16,06,11.40
2012,04,27,16,07,11.30
2012,04,27,16,08,11.30
2012,04,27,16,09,11.30
2012,04,27,16,10,11.40
2012,04,27,16,11,11.40
2012,04,27,16,12,11.40
2012,04,27,16,13,11.50
2012,04,27,16,14,11.60
2012,04,27,16,15,11.60
2012,04,27,16,16,11.70
2012,04,27,16,17,11.70
2012,04,27,16,18,11.80
2012,04,27,16,19,11.80
2012,04,27,16,20,11.80
2012,04,27,16,21,11.80
2012,04,27,16,22,11.80
2012,04,27,16,23,11.80
2012,04,27,16,24,11.80
2012,04,27,16,25,11.90
2012,04,27,16,26,11.90
2012,04,27,16,27,12.00
2012,04,27,16,28,12.00
2012,04,27,16,29,12.10
2012,04,27,16,30,12.10
2012,04,27,16,31,12.10
2012,04,27,16,32,12.00
2012,04,27,16,33,11.80
2012,04,27,16,34,11.70
2012,04,27,16,35,11.60
2012,04,27,16,36,11.60
2012,04,27,16,37,11.60
2012,04,27,16,38,11.60
2012,04,27,16,39,11.70
2012,04,27,16,40,11.70
2012,04,27,16,41,11.70
2012,04,27,16,42,11.60
2012,04,27,16,43,11.50
2012,04,27,16,44,11.40
2012,04,27,16,45,11.60
2012,04,27,16,46,11.60
2012,04,27,16,47,11.60
2012,04,27,16,48,11.60
2012,04,27,16,49,11.60
2012,04,27,16,50,11.60
2012,04,27,16,51,11.60
2012,04,27,16,52,11.60
2012,04,27,16,53,11.60
2012,04,27,16,54,11.60
2012,04,27,16,55,11.60
2012,04,27,16,56,11.60
2012,04,27,19,29,9.90
2012,04,27,19,30,9.80
2012,04,27,19,31,9.80
2012,04,27,19,32,9.80
2012,04,27,19,33,9.80
2012,04,27,19,34,9.80
2012,04,27,19,35,9.80
2012,04,27,19,36,9.80
2012,04,27,19,37,9.80
2012,04,27,19,38,9.80
2012,04,27,19,39,9.80
2012,04,27,19,40,9.80
2012,04,27,19,41,9.80
2012,04,27,19,42,9.80
2012,04,27,19,43,9.80
2012,04,27,19,44,9.80
2012,04,27,19,45,9.80
2012,04,27,19,46,9.80
2012,04,27,19,47,9.80
2012,04,27,19,48,9.80
2012,04,27,19,49,9.80
2012,04,27,19,50,9.70
2012,04,27,19,51,9.70
2012,04,27,19,52,9.70
2012,04,27,19,53,9.70
2012,04,27,19,54,9.70
2012,04,27,19,55,9.70
2012,04,27,19,56,9.70
2012,04,27,19,57,9.70
2012,04,27,19,58,9.70
2012,04,27,19,59,9.70
2012,04,27,20,00,9.70
2012,04,27,20,01,9.70
2012,04,27,20,02,9.70
2012,04,27,20,03,9.70
2012,04,27,20,04,9.70
2012,04,27,20,05,9.70
2012,04,27,20,06,9.70
2012,04,27,20,07,9.70
2012,04,27,20,08,9.70
2012,04,27,20,09,9.70
2012,04,27,20,10,9.70
2012,04,27,20,11,9.70
2012,04,27,20,12,9.70
2012,04,27,20,13,9.70
2012,04,27,20,14,9.70
2012,04,27,20,15,9.70
2012,04,27,20,16,9.70
2012,04,27,20,17,9.70
2012,04,27,20,18,9.70
2012,04,27,20,19,9.70
2012,04,27,20,20,9.70